Regional Weather Roundup
Issued by NWS Goodland, KS

Home | Current Version | Previous Version | Graphics & Text | Print | Product List | Glossary On
Versions: 1 2 3 4 5 6 7 8 9 10 11 12 13 14 15 16 17 18 19 20 21 22 23 24 25 26 27 28 29 30 31 32 33 34 35 36 37 38 39 40 41 42 43 44 45 46 47 48 49 50
000
ASUS43 KGLD 210908
RWRGLD

GOODLAND FORECAST AREA HOURLY WEATHER ROUNDUP
NATIONAL WEATHER SERVICE GOODLAND KS
200 AM MST FRI NOV 21 2014

...OFFICIAL OBSERVATIONS...

CITY           SKY/WX    TMP DP  RH WIND       PRES   REMARKS
GOODLAND KS    CLOUDY    36  27  69 S10G21    30.01F
HILL CITY KS   MOCLDY    25  19  78 E6        30.11S
IMPERIAL NEB   MOCLDY    28  20  71 SE3       30.01S
MCCOOK NEB     CLOUDY    21  16  81 E5        30.07S
AKRON CO       CLOUDY    38  25  59 S10       29.95F
BURLINGTON CO  CLOUDY    37  26  64 S14       30.00S
LIMON CO       MOCLDY    24  20  84 S7        29.98F
$$

...UNOFFICIAL OBSERVATIONS...

CITY           SKY/WX    TMP DP  RH WIND       PRES   REMARKS
COLBY KS       MOCLDY    34  28  80 S7        30.05S
GOVE KS          N/A     27  32 100 MISG        N/A
NORTON KS      CLEAR     23  16  74 SE6       30.08S
SHARON SPRINGS   N/A     35  29  80 S9G16       N/A
TRIBUNE KS     CLOUDY    34  32  93 S7        30.06S
TRENTON NEB      N/A     25  32 100 CALM        N/A
YUMA CO          N/A     32  22  66 CALM        N/A
$$


USA.gov is the U.S. government's official web portal to all federal, state and local government web resources and services.